Hors Challenge

Trail La Wastiaise - Haut-Le-Wastia (27.00 km)

mercredi 21 juillet 2021

Vous pouvez trouver Le classement original sur : http://ultratiming.be
 
TRAIL LA WASTIAISE - HAUT-LE-WASTIA
DISTANCE 27.00 km
mercredi 21 juillet 2021
 
Place Dos NOM Equipe Catégorie Pl/cat Temps Temps/km Vitesse
01:00:00                
1 6472 VAN LOKEREN STIJN TRAKKS TEAM ELI V1H 1 1:50:05 04:05 14.72
2 6419 DELBECQ NATHAN - SEH 1 1:54:11 04:14 14.19
3 6436 HAQUENNE DAMIEN - SEH 2 1:59:11 04:25 13.59
4 6462 SCHOUMACKERS BENOÎT - V1H 2 2:02:49 04:33 13.19
5 6428 FONTAINE GILLES TRAKKS TEAM / N SEH 3 2:10:33 04:50 12.41
6 6480 VERMIESCH ROBBE BGSET SEH 4 2:15:06 05:00 11.99
7 6485 HUBEAUX DENIS BIESME V1H 3 2:15:41 05:02 11.94
8 6460 REULAND JULIEN DITOS TRAIL SEH 5 2:16:15 05:03 11.89
9 6455 PAULUS DAVID - V1H 4 2:17:00 05:04 11.82
10 6425 DULON OLIVIER - V2H 1 2:18:03 05:07 11.73
11 6418 DEGREZ FRANÇOIS - SEH 6 2:18:06 05:07 11.73
12 6477 VERDURE KEVIN - SEH 7 2:18:09 05:07 11.73
13 6475 VASBECK DANIEL - SEH 8 2:18:47 05:08 11.67
14 6476 VERDOOT XAVIER - V1H 5 2:18:52 05:09 11.67
15 6473 VANBENEDEN KRISTOF FURA CLUB V1H 6 2:19:02 05:09 11.65
16 6449 MASSIN CHARLIE JE COURS POUR L V1H 7 2:19:09 05:09 11.64
17 6431 FRANCOIS HERVE - SEH 9 2:21:14 05:14 11.47
18 6430 FRANCOIS RAPHAEL - CAH 1 2:22:00 05:16 11.41
19 6467 TOISOUL ERIC TRIFAST V3H 1 2:22:07 05:16 11.40
20 6486 BRIX NICOLAS - SEH 10 2:23:07 05:18 11.32
21 6415 CHARLIER ROMAIN - SEH 11 2:26:25 05:25 11.06
22 6459 QUESTIAUX BERNARD - V2H 2 2:27:06 05:27 11.01
23 6447 MARCHAND QUENTIN JCOURPOUTLAPERO V1H 8 2:27:37 05:28 10.97
24 6457 PONCELET ANTOINE - SEH 12 2:29:00 05:31 10.87
25 6470 VAN DE VELDE LANDER - SEH 13 2:29:25 05:32 10.84
26 6412 BUYSE TOM - SEH 14 2:29:36 05:32 10.83
27 6479 VERMEYLEN KEVIN - V1H 9 2:30:30 05:34 10.76
28 6404 BEN MADHKOUR RADHWAN FER SEH 15 2:30:57 05:35 10.73
29 6432 FRANÇOIS JÉROME LA WALHEROISE SEH 16 2:31:48 05:37 10.67
30 6448 MARZOLI EMILIANO - V1H 10 2:31:57 05:38 10.66
31 6407 BONATO BENOIT MDGTRAILTEAM V2H 3 2:32:24 05:39 10.63
32 6421 DENDAL DIDIER - V2H 4 2:32:42 05:39 10.61
33 6471 VAN EECKHOUT ANTOINE ENDURANCE TEAM SEH 17 2:32:43 05:39 10.61
34 6406 BLANCHART NICOLAS GLOBETRAILERS SEH 18 2:32:52 05:40 10.60
35 6483 PINON MANU - V1H 11 2:37:04 05:49 10.31
36 6453 MONTECAVALLI SERGIO - V2H 5 2:38:13 05:52 10.24
37 6413 CASTELAIN JEAN-LUC SKY IS THE LIMI V2H 6 2:38:38 05:53 10.21
38 6446 LORAND JEAN-FRANÇOIS - V1H 12 2:38:48 05:53 10.20
39 6456 PICKAERT PATRICK FERNAND - V1H 13 2:39:12 05:54 10.18
40 6410 BRICHET CHARLEY - SEH 19 2:39:29 05:54 10.16
41 6450 MERCENIER DIDIER ZATAK NAMUR V2H 7 2:39:45 05:55 10.14
42 6461 SALMON LUC - V1H 14 2:43:42 06:04 9.90
43 6487 VERELLEN FRANKY / V1H 15 2:45:30 06:08 9.79
44 6422 DEWIT RAYMOND - V2H 8 2:45:41 06:08 9.78
45 6433 FROONINCKX AUDREY JC MONTAGNARD SEF 1 2:46:09 06:09 9.75
46 6468 TRAINA CHRISTOPHE OTC V1H 16 2:46:15 06:09 9.74
47 6466 TO WAIYEN GENT RUNNING TE V1F 1 2:47:09 06:11 9.69
48 6454 PAREIN ESTELLE BORN TO RUN SEF 2 2:48:04 06:13 9.64
49 6482 HOEBANCHX THOMAS BAILRUN V1H 17 2:48:11 06:14 9.63
50 6414 CHARLIER JÉRÔME - SEH 20 2:50:47 06:20 9.49
51 6444 LESOIL PHILIPPE - V2H 9 2:51:28 06:21 9.45
52 6401 AOUST BENJAMIN PESTECHNOLOGY SEH 21 2:52:11 06:23 9.41
53 6420 DELBROUCK SIMON - SEH 22 2:53:01 06:24 9.36
54 6445 LOOTEN MARIE CANICROSS CENTR V1F 2 2:54:01 06:27 9.31
55 6441 LEHANNE ERIC - V1H 18 2:57:09 06:34 9.14
56 6409 BOUVIER BENOIT - V1H 19 2:58:55 06:38 9.05
57 6417 CORTELLETTI ENZO MADRES SEH 23 3:02:25 06:45 8.88
58 6429 FORÊT GRÉGORY COP1 TRAILER V2H 10 3:06:03 06:53 8.71
59 6443 LELIVELD ERWAN - SEH 24 3:07:50 06:57 8.62
60 6465 SYDOR GUY - V2H 11 3:10:31 07:03 8.50
61 6402 BEHEYT MARIE - SEF 3 3:17:44 07:19 8.19
62 6464 SURAY ALEXANDRE - SEH 25 3:18:10 07:20 8.17
63 6411 BRODEOUX ANN MP STUDIO V1F 3 3:18:13 07:20 8.17
64 6440 LANDRIE ISABELLE - V1F 4 3:19:56 07:24 8.10
65 6435 GRUIELLE YANNICK BETRAIL V2H 12 3:22:14 07:29 8.01
66 6426 DUPUIS YVES RUN'HEURE V1H 20 3:26:37 07:39 7.84
67 6405 BERBEROF SERGE - V2H 13 3:34:42 07:57 7.55
68 6439 HOYOIS SÉBASTIEN - V1H 21 3:40:41 08:10 7.34
69 6424 DUBOIS NATHALIE JCBAUDOUR V2F 1 3:51:42 08:35 6.99
70 6451 MEYS AURORE JCBAUDOUR V1F 5 3:51:44 08:35 6.99
71 6463 SPAGNUOLO ANGELO JC BAUDOUR V3H 2 3:53:44 08:39 6.93
                 
Nos dernières videos